STARLINK-34334, 64273

Orbit data source: Space-Track

STARLINK-34334, 64273 is a payload satellite owned by SpaceX/Seattle (US) in LEO that was launched on Wed, 04 Jun 2025 UTC via an FALCON 9 launch vehicle from the Air Force Western Test Range (AFWTR). Payload-class satellites include a variety of spacecraft equipped with specific instruments for various scientific and technological missions. These include communications satellites like Starlink; space stations such as the ISS; scientific satellites like the Hubble; Earth observation satellites from companies like Planet Labs, Umbra, and HawkEye 360; GPS; miniature CubeSats for education and research; and military/defense satellites.

Loading next visibility...
Identifier
64273, 2025-120T
Orbit
LEO
Country
Flag of USUS
Related business
Manufacturer
SpaceX/Seattle
Mission
Operational Commercial Communications
Bus & Motor
STARLINK V2MO, Unknown motor
Mass
575 kg wet, ~530 kg dry
Launch date (UTC)
2025-06-04 (1 year ago)
Launch vehicle
FALCON 9
Launch site
Air Force Western Test Range (AFWTR)
Object type
Payload
Rocket body
Debris
Shape & HBR
Box + 2 Pan, 17.7 m
Radar Cross Section
36.964 m², Large (>1 m²)

Expand to show TLE details & history
Last TLE update: 1 day ago

TLE from 1 day ago
0 STARLINK-34334
1 64273U 25120T   26170.79679454  .00013102  00000-0  45359-3 0  9995
2 64273  53.1632   2.0967 0001417  73.8598 286.2559 15.30208398 59551
Epoch: 2026-06-19T19:07Z
TLE epoch observation values (Epoch: 2026-06-19T19:07:23.048Z)
Latitude
0.00001°
Longitude
167.23005°
Altitude
475.818 km
Speed
7.629 km/s
True Right ascension
00h 08m 23s
True Declination
0° 00' 00"
Sunlit
Object was in daylight at epoch
Visualization orbit readout
Latitude
Unknown
Longitude
Unknown
Altitude
Unknown
Speed
Unknown
Apparent Right ascension
Unknown
Apparent Declination
Unknown
Sunlit
N/A
Visualization observer readout
Local Sidereal Time
07:13:46
Azimuth
Unknown
Elevation
Unknown
Doppler factor
Unknown
Orbital elements
Apogee altitude
476.417 km
Perigee altitude
474.475 km
Semi-major axis
6,853.583 km
Eccentricity
0.00014
Inclination
53.1632°
RAAN
2.0967°
Arg. of periapsis
73.8598°
True anomaly
286.24031°
Mean anomaly
286.2559°
Eccentric anomaly
286.24811°
Mean motion
3.82531 °/min
Orbital period
94.11 mins
BSTAR
0.00045359
Loading maneuver chart data...
Computing Atmospheric mass density...
Loading historical data...
Loading historical data...
Loading historical data...
Loading historical data...
Loading historical data...
Loading historical data...
Loading historical data...

Documentation

Showing up to 5 results
|